N33W KSAN-KLAX

Flight info

Callsign N33W
Flight time 0h 33m
Altitude VFR/025
Route
Aircraft BE90/L-VGD/C

Departure

Time 2026-05-08 00:48
Airport San Diego International Airport (KSAN)

Arrival

Time 2026-05-08 01:21
Airport Los Angeles International Airport (KLAX)
Time Latitude Longitude Altitude Speed Heading
2026-05-08 00:36 32.73452 -117.20757 20 ft 0 kts 90°
2026-05-08 00:41 32.73452 -117.20738 20 ft 6 kts 91°
2026-05-08 00:41 32.73502 -117.20689 20 ft 16 kts
2026-05-08 00:42 32.73607 -117.20586 20 ft 24 kts 91°
2026-05-08 00:42 32.73591 -117.20359 20 ft 29 kts 107°
2026-05-08 00:42 32.73531 -117.20116 20 ft 31 kts 105°
2026-05-08 00:42 32.73470 -117.19859 20 ft 33 kts 107°
2026-05-08 00:43 32.73403 -117.19585 20 ft 35 kts 106°
2026-05-08 00:43 32.73335 -117.19303 20 ft 35 kts 107°
2026-05-08 00:43 32.73269 -117.19025 20 ft 35 kts 105°
2026-05-08 00:43 32.73199 -117.18745 20 ft 36 kts 107°
2026-05-08 00:44 32.73129 -117.18454 20 ft 36 kts 107°
2026-05-08 00:44 32.73060 -117.18168 20 ft 36 kts 107°
2026-05-08 00:44 32.72992 -117.17887 20 ft 25 kts 109°
2026-05-08 00:44 32.72961 -117.17732 20 ft 10 kts 82°
2026-05-08 00:45 32.72965 -117.17714 20 ft 0 kts 69°
2026-05-08 00:46 32.72966 -117.17711 20 ft 3 kts 69°
2026-05-08 00:46 32.73020 -117.17667 20 ft 10 kts 358°
2026-05-08 00:46 32.73054 -117.17722 20 ft 0 kts 288°
2026-05-08 00:47 32.73062 -117.17755 20 ft 28 kts 286°
2026-05-08 00:47 32.73208 -117.18353 20 ft 110 kts 285°
2026-05-08 00:47 32.73457 -117.19360 143 ft 136 kts 280°
2026-05-08 00:47 32.73531 -117.19654 186 ft 140 kts 280°
2026-05-08 00:48 32.73790 -117.20761 494 ft 140 kts 283°
2026-05-08 00:48 32.74013 -117.21902 974 ft 139 kts 281°
2026-05-08 00:48 32.74208 -117.23051 1315 ft 153 kts 278°
2026-05-08 00:48 32.74628 -117.24223 1740 ft 162 kts 313°
2026-05-08 00:49 32.75593 -117.24988 1957 ft 178 kts 324°
2026-05-08 00:49 32.76658 -117.25781 2310 ft 180 kts 325°
2026-05-08 00:49 32.77775 -117.26566 2435 ft 194 kts 328°
2026-05-08 00:49 32.78990 -117.27332 2625 ft 198 kts 331°
2026-05-08 00:50 32.80147 -117.28140 2862 ft 198 kts 321°
2026-05-08 00:50 32.81344 -117.29134 2698 ft 213 kts 322°
2026-05-08 00:50 32.82561 -117.30156 2687 ft 219 kts 322°
2026-05-08 00:50 32.83819 -117.31214 2670 ft 221 kts 322°
2026-05-08 00:51 32.85066 -117.32265 2665 ft 221 kts 322°
2026-05-08 00:51 32.86333 -117.33334 2667 ft 222 kts 322°
2026-05-08 00:51 32.87592 -117.34396 2664 ft 222 kts 322°
2026-05-08 00:51 32.88834 -117.35468 2647 ft 222 kts 315°
2026-05-08 00:52 32.89990 -117.36668 2665 ft 222 kts 316°
2026-05-08 00:52 32.91164 -117.37878 2667 ft 222 kts 316°
2026-05-08 00:52 32.92317 -117.39068 2666 ft 223 kts 317°
2026-05-08 00:52 32.93488 -117.40277 2668 ft 223 kts 317°
2026-05-08 00:53 32.94661 -117.41489 2662 ft 224 kts 317°
2026-05-08 00:53 32.95995 -117.42460 2499 ft 235 kts 343°
2026-05-08 00:53 32.97479 -117.42944 2663 ft 228 kts 342°
2026-05-08 00:53 32.99004 -117.43465 2672 ft 228 kts 342°
2026-05-08 00:54 33.00498 -117.43977 2669 ft 229 kts 342°
2026-05-08 00:54 33.02042 -117.44258 2664 ft 230 kts 350°
2026-05-08 00:54 33.03607 -117.44460 2882 ft 221 kts 355°
2026-05-08 00:54 33.05012 -117.44464 3502 ft 198 kts
2026-05-08 00:55 33.06410 -117.44378 3726 ft 202 kts
2026-05-08 00:55 33.07807 -117.44231 4029 ft 202 kts
2026-05-08 00:55 33.09226 -117.44036 4190 ft 208 kts
2026-05-08 00:55 33.10659 -117.43786 4421 ft 209 kts
2026-05-08 00:56 33.12114 -117.43711 4533 ft 214 kts 355°
2026-05-08 00:56 33.13592 -117.43948 4702 ft 214 kts 351°
2026-05-08 00:56 33.15084 -117.44152 4810 ft 219 kts 352°
2026-05-08 00:56 33.16617 -117.44430 4725 ft 229 kts 350°
2026-05-08 00:57 33.18210 -117.44728 4637 ft 235 kts 352°
2026-05-08 00:57 33.19817 -117.44941 4707 ft 232 kts 355°
2026-05-08 00:57 33.21419 -117.45215 4662 ft 234 kts 352°
2026-05-08 00:57 33.23028 -117.45506 4655 ft 235 kts 351°
2026-05-08 00:58 33.24639 -117.45800 4654 ft 235 kts 351°
2026-05-08 00:58 33.26252 -117.46098 4654 ft 235 kts 351°
2026-05-08 00:58 33.27865 -117.46399 4654 ft 235 kts 351°
2026-05-08 00:58 33.29475 -117.46703 4654 ft 235 kts 351°
2026-05-08 00:59 33.31099 -117.47008 4654 ft 235 kts 351°
2026-05-08 00:59 33.32708 -117.47311 4654 ft 235 kts 351°
2026-05-08 00:59 33.34317 -117.47614 4654 ft 235 kts 351°
2026-05-08 00:59 33.35932 -117.47919 4654 ft 235 kts 351°
2026-05-08 01:00 33.36482 -117.48023 4654 ft 235 kts 351°
2026-05-08 01:00 33.39156 -117.48526 4654 ft 235 kts 351°
2026-05-08 01:00 33.40784 -117.48832 4654 ft 235 kts 351°
2026-05-08 01:00 33.42397 -117.49136 4654 ft 235 kts 351°
2026-05-08 01:01 33.44007 -117.49442 4654 ft 235 kts 351°
2026-05-08 01:01 33.45625 -117.49741 4653 ft 235 kts 351°
2026-05-08 01:01 33.47237 -117.50034 4651 ft 235 kts 351°
2026-05-08 01:01 33.48862 -117.50269 4646 ft 236 kts 358°
2026-05-08 01:02 33.50499 -117.50350 4646 ft 235 kts 358°
2026-05-08 01:02 33.52121 -117.50427 4643 ft 235 kts 357°
2026-05-08 01:02 33.53754 -117.50498 4641 ft 235 kts 357°
2026-05-08 01:02 33.55395 -117.50563 4639 ft 235 kts 357°
2026-05-08 01:03 33.57015 -117.50620 4636 ft 235 kts 357°
2026-05-08 01:03 33.58661 -117.50671 4634 ft 235 kts 357°
2026-05-08 01:03 33.60295 -117.50714 4631 ft 234 kts 357°
2026-05-08 01:03 33.61903 -117.50751 4629 ft 234 kts 357°
2026-05-08 01:04 33.63534 -117.50784 4627 ft 234 kts 357°
2026-05-08 01:04 33.65164 -117.50811 4625 ft 234 kts 357°
2026-05-08 01:04 33.66788 -117.50832 4623 ft 234 kts 357°
2026-05-08 01:04 33.68398 -117.50951 4693 ft 226 kts 341°
2026-05-08 01:05 33.69529 -117.52019 4978 ft 206 kts 300°
2026-05-08 01:05 33.70016 -117.53675 4809 ft 216 kts 283°
2026-05-08 01:05 33.70446 -117.55447 4718 ft 221 kts 283°
2026-05-08 01:05 33.70882 -117.57233 4666 ft 224 kts 282°
2026-05-08 01:06 33.71323 -117.59026 4630 ft 223 kts 283°
2026-05-08 01:06 33.71769 -117.60806 4622 ft 222 kts 283°
2026-05-08 01:06 33.71914 -117.61390 4640 ft 220 kts 282°
2026-05-08 01:06 33.72620 -117.64203 4725 ft 222 kts 283°
2026-05-08 01:07 33.73195 -117.65963 4657 ft 224 kts 288°
2026-05-08 01:07 33.73810 -117.67686 4629 ft 224 kts 289°
2026-05-08 01:07 33.74427 -117.69392 4626 ft 223 kts 289°
2026-05-08 01:07 33.75040 -117.71097 4626 ft 222 kts 289°
2026-05-08 01:08 33.75660 -117.72821 4628 ft 222 kts 289°
2026-05-08 01:08 33.76268 -117.74514 4630 ft 223 kts 289°
2026-05-08 01:08 33.76874 -117.76224 4632 ft 223 kts 289°
2026-05-08 01:08 33.77491 -117.77959 4634 ft 224 kts 289°
2026-05-08 01:09 33.78091 -117.79662 4636 ft 224 kts 289°
2026-05-08 01:09 33.78700 -117.81393 4637 ft 225 kts 289°
2026-05-08 01:09 33.79307 -117.83141 4639 ft 226 kts 289°
2026-05-08 01:09 33.79906 -117.84881 4640 ft 226 kts 289°
2026-05-08 01:10 33.80513 -117.86644 4638 ft 227 kts 289°
2026-05-08 01:10 33.81113 -117.88384 4635 ft 227 kts 289°
2026-05-08 01:10 33.81721 -117.90143 4633 ft 227 kts 289°
2026-05-08 01:10 33.82324 -117.91886 4631 ft 227 kts 289°
2026-05-08 01:11 33.82928 -117.93631 4629 ft 227 kts 289°
2026-05-08 01:11 33.83541 -117.95397 4627 ft 227 kts 289°
2026-05-08 01:11 33.84148 -117.97147 4649 ft 224 kts 289°
2026-05-08 01:11 33.84730 -117.98809 4629 ft 209 kts 289°
2026-05-08 01:12 33.85285 -118.00383 4622 ft 201 kts 289°
2026-05-08 01:12 33.85829 -118.01920 4621 ft 198 kts 289°
2026-05-08 01:12 33.86364 -118.03426 4620 ft 196 kts 289°
2026-05-08 01:12 33.86899 -118.04936 4620 ft 195 kts 289°
2026-05-08 01:13 33.87433 -118.06443 4620 ft 195 kts 289°
2026-05-08 01:13 33.87965 -118.07948 4619 ft 195 kts 289°
2026-05-08 01:13 33.88491 -118.09438 4620 ft 196 kts 289°
2026-05-08 01:13 33.89027 -118.10962 4621 ft 196 kts 289°
2026-05-08 01:14 33.89545 -118.12427 4527 ft 181 kts 289°
2026-05-08 01:14 33.90011 -118.13718 4412 ft 156 kts 290°
2026-05-08 01:14 33.90431 -118.14854 4189 ft 143 kts 290°
2026-05-08 01:14 33.90832 -118.15937 3794 ft 144 kts 290°
2026-05-08 01:15 33.91238 -118.17034 3440 ft 141 kts 290°
2026-05-08 01:15 33.91612 -118.18032 3317 ft 119 kts 290°
2026-05-08 01:15 33.91964 -118.18851 3175 ft 101 kts 302°
2026-05-08 01:15 33.92155 -118.19562 2845 ft 89 kts 257°
2026-05-08 01:16 33.92329 -118.20277 2483 ft 95 kts 299°
2026-05-08 01:16 33.92683 -118.20911 2133 ft 92 kts 301°
2026-05-08 01:16 33.93037 -118.21535 1772 ft 88 kts 295°
2026-05-08 01:16 33.93386 -118.22148 1397 ft 104 kts 296°
2026-05-08 01:17 33.93850 -118.23036 1535 ft 143 kts 298°
2026-05-08 01:17 33.94448 -118.24214 1514 ft 176 kts 298°
2026-05-08 01:17 33.95049 -118.25427 1678 ft 156 kts 289°
2026-05-08 01:17 33.95064 -118.26598 1838 ft 138 kts 257°
2026-05-08 01:18 33.94925 -118.27731 1823 ft 140 kts 259°
2026-05-08 01:18 33.94819 -118.28843 1758 ft 121 kts 263°
2026-05-08 01:18 33.94653 -118.29747 1565 ft 107 kts 250°
2026-05-08 01:18 33.94474 -118.30755 1457 ft 139 kts 260°
2026-05-08 01:19 33.94344 -118.31963 1240 ft 141 kts 262°
2026-05-08 01:19 33.94250 -118.33059 1109 ft 124 kts 259°
2026-05-08 01:19 33.94138 -118.34055 1005 ft 114 kts 260°
2026-05-08 01:19 33.94037 -118.35044 831 ft 122 kts 262°
2026-05-08 01:20 33.93968 -118.36021 693 ft 106 kts 263°
2026-05-08 01:20 33.93881 -118.36853 545 ft 97 kts 261°
2026-05-08 01:20 33.93807 -118.37652 344 ft 93 kts 260°
2026-05-08 01:20 33.93734 -118.38364 176 ft 79 kts 259°
2026-05-08 01:21 33.93668 -118.38975 98 ft 70 kts 261°
2026-05-08 01:21 33.93607 -118.39365 102 ft 16 kts 203°
2026-05-08 01:21 33.93531 -118.39376 102 ft 1 kts 187°
2026-05-08 01:21 33.93528 -118.39377 102 ft 0 kts 187°
2026-05-08 01:23 33.93514 -118.39380 102 ft 0 kts 197°
2026-05-08 01:24 33.93499 -118.39399 103 ft 8 kts 265°
2026-05-08 01:24 33.93483 -118.39544 105 ft 25 kts 262°
2026-05-08 01:24 33.93462 -118.39758 108 ft 21 kts 265°
2026-05-08 01:24 33.93396 -118.39825 108 ft 14 kts 201°
2026-05-08 01:25 33.93348 -118.39854 108 ft 7 kts 173°
2026-05-08 01:25 33.93293 -118.39848 109 ft 0 kts 176°
2026-05-08 01:25 33.93277 -118.39846 109 ft 0 kts 175°
2026-05-08 01:25 33.93284 -118.39838 109 ft 2 kts 352°
2026-05-08 01:26 33.93292 -118.39839 109 ft 0 kts 352°